Regional Weather Roundup
Issued by NWS Wilmington, NC

Home | Current Version | Previous Version | Text Only | Print | Product List | Glossary On
Versions: 1 2 3 4 5 6 7 8 9 10 11 12 13 14 15 16 17 18 19 20 21 22 23 24 25 26 27 28 29 30 31 32 33 34 35 36 37 38 39 40 41 42 43 44 45 46 47 48 49 50
000
ASUS42 KILM 021710
RWRILM
RWRILM
REGIONAL HOURLY WEATHER ROUNDUP
NATIONAL WEATHER SERVICE WILMINGTON NC
100 PM EDT TUE SEP 02 2014

NOTE: "FAIR" INDICATES FEW OR NO CLOUDS BELOW 12,000 FEET WITH NO
SIGNIFICANT WEATHER AND/OR OBSTRUCTIONS TO VISIBILITY.

...............WFO WILMINGTON COUNTY WARNING AREA...............

......COASTAL NC AND SC COUNTIES......

CITY           SKY/WX    TMP DP  RH WIND       PRES   REMARKS
WILMINGTON     MOSUNNY   91  73  55 SW6       30.06F HX  99
SOUTHPORT      SUNNY     88  76  68 S8        30.08F HX  99
N MYRTLE BEACH SUNNY     88  77  69 S10       30.08S HX 100
MYRTLE BEACH   MOSUNNY   90  75  62 S12       30.08S HX 100

......INLAND NC AND SC COUNTIES.......

CITY           SKY/WX    TMP DP  RH WIND       PRES   REMARKS
LUMBERTON      MOSUNNY   92  73  53 SW3       30.04F HX 100
ELIZABETHTOWN  MOSUNNY   92  73  54 CALM      30.06S HX 101
WHITEVILLE     SUNNY     90  75  62 CALM      30.06S HX 100
FLORENCE       MOSUNNY   94  73  50 SE6       30.05F HX 103
DARLINGTON     SUNNY     95  70  43 S7        30.06F HX 101

....................REST OF NORTH CAROLINA......................

.........EASTERN NC.........

CITY           SKY/WX    TMP DP  RH WIND       PRES   REMARKS
CAPE HATTERAS  SUNNY     85  78  80 SW10G17   30.06F HX  96
JACKSONVILLE   SUNNY     93  72  49 SW8       30.05F HX 100
MOREHEAD CITY  SUNNY     87  78  74 S14       30.07S HX 100
KENANSVILLE    PTSUNNY   90  71  53 CALM      30.06F HX  96
NEW BERN       SUNNY     94  75  54 S7        30.05F HX 105
ELIZABETH CITY SUNNY     91  74  57 SW8       30.01F HX 100

.........CENTRAL NC.........

CITY           SKY/WX    TMP DP  RH WIND       PRES   REMARKS
RALEIGH DURHAM MOSUNNY   93  73  52 SW5       30.04F HX 102
ROCKY MOUNT    SUNNY     94  72  48 VRB6      30.03F HX 102
ROANOKE RAPIDS NOT AVBL
FAYETTEVILLE   SUNNY     93  68  43 SW6       30.04F HX  97
HOFFMAN        SUNNY     95  65  36 W8        30.06F HX  97

.........WESTERN NC.........

CITY           SKY/WX    TMP DP  RH WIND       PRES   REMARKS
CHARLOTTE      SUNNY     92  68  45 W7        30.07F HX  96
GREENSBORO     PTSUNNY   92  66  42 W8        30.06F HX  94
HICKORY        NOT AVBL
BOONE          NOT AVBL
ASHEVILLE      NOT AVBL

.....................REST OF SOUTH CAROLINA.....................

.........EASTERN SC.........

CITY           SKY/WX    TMP DP  RH WIND       PRES   REMARKS
CHARLESTON     PTSUNNY   93  72  50 VRB7      30.08S HX 101
BEAUFORT MCAS  PTSUNNY   93  73  52 SW6       30.07F HX 102
HILTON HEAD    NOT AVBL

.........CENTRAL SC.........

CITY           SKY/WX    TMP DP  RH WIND       PRES   REMARKS
COLUMBIA       MOSUNNY   94  69  44 SE8       30.05F HX  99
ORANGEBURG     MOSUNNY   90  73  57 W5        30.07F HX  98
SUMTER SHAW    SUNNY     93  71  48 W6        30.05F HX  99

.........WESTERN SC.........

CITY           SKY/WX    TMP DP  RH WIND       PRES   REMARKS
GREENVILLE     NOT AVBL
ROCK HILL      SUNNY     90  69  50 SW6       30.07F HX  94
ANDERSON       SUNNY     90  69  50 W12       30.09F HX  94
CLEMSON        NOT AVBL
GREENWOOD      SUNNY     94  67  41 SW3G18    30.08F HX  97


...................COASTAL AND OFFSHORE REPORTS..................

................LOCAL PIERS AND NC RESERVE................


STATION/POSITION TIME  SKY/WX   TEMP    WIND        PRES    VSBY
                                AIR SEA DIR/SP/G
                 (UTC)          (F)     (DEG/KT/KT) (MB)    (MI)
JOHNY MRCER PIER 1700            83 83  160/ 12/ 13 1018.0S
NC RESRV MASNBRO 1600            90     170/  4     1018.0S
OCEAN CREST PIER 1700            83 83  160/  8/  9 1017.8F
SPRINGMAID  PIER 1700            84 83  170/  9/ 10 1018.6R


................COASTAL AND OFFSHORE BUOYS................


STATION/POSITION TIME  SKY/WX   TEMP    WIND        PRES    VSBY
                                AIR SEA DIR/SP/G
                 (UTC)          (F)     (DEG/KT/KT) (MB)    (MI)
DIMNDSHOAL 41025 1700            81     210/ 12/ 14 1017.9F
WVE H/P(F/S)=  3/ 4 WND WVE H/P(F/S)=  2/ 4 SWL H/P/D(F/S/D)=  2/110/ 9

CAPE LOOKOUT     1700            83     210/ 10/ 12 1018.5R
ONSLOW BAY 41036 1600            82 83  210/  8/ 10 1019.2F
5 WRITEBCH 41038 1600            80 83  180/  8/ 10   N/A
MASONBORO  41110 1700               84                N/A
WVE H/P(F/S)=  2/11 WND WVE H/P(F/S)=  2/ 9 SWL H/P/D(F/S/D)=  2/110/11

WILM HARBR 41108 1700               85                N/A
WVE H/P(F/S)=  2/ 5 WND WVE H/P(F/S)=  2/ 5

27WRITEBCH 41037 NOT AVBL
FRYING PAN 41013 NOT AVBL
SUNST NRSH 41024 1600            85     220/  8/  8 1018.4F
CAPRS NRSH 41029 1600            84     160/  8/  8   N/A
EDISTO     41004 1700            83 84  170/  8/ 10 1018.9F
WVE H/P(F/S)=  2/ 8 WND WVE H/P(F/S)=  2/ 3 SWL H/P/D(F/S/D)=  2/ 8



..........OFFSHORE BUOYS BEYOND 100 NM OFFSHORE...........
.....IN A TRIANGLE---HAT TO BERMUDA TO BAHAMAS TO HAT.....


STATION/POSITION TIME  SKY/WX   TEMP    WIND        PRES    VSBY
                                AIR SEA DIR/SP/G
                 (UTC)          (F)     (DEG/KT/KT) (MB)    (MI)
150E HAT   41001 NOT AVBL
W BERMUDA  41048 1552            79 84  320/  2/  4 1021.1
WVE H/P(F/S)=  3/ 9 SWL H/P/D(F/S/D)=  3/120/ 9

ATLANTIC S 41049 1616            84 86   90/  6/  8 1019.9F
WVE H/P(F/S)=  4/14 WND WVE H/P(F/S)=  2/ 4 SWL H/P/D(F/S/D)=  5/ 60/14

E BAHAMAS  41046 1628            83 85  110/ 10/ 12 1018.2S
WVE H/P(F/S)=  4/11 WND WVE H/P(F/S)=  2/ 4 SWL H/P/D(F/S/D)=  3/ 30/11

NE BAHAMAS 41047 1623            81 84   70/ 12/ 14 1019.7F
WVE H/P(F/S)=  4/12 WND WVE H/P(F/S)=  2/ 5 SWL H/P/D(F/S/D)=  3/ 40/12

120E CANVRL41010 1700            83 85  120/  8/ 10 1019.6S
WVE H/P(F/S)=  3/12 SWL H/P/D(F/S/D)=  3/ 30/12


END


USA.gov is the U.S. government's official web portal to all federal, state and local government web resources and services.